EW8262 Weather Reports


time (UTC)temp
F
wind
direction
speed
knots
gust
knots
rain 1hr
in
rain 24hr
in
rain mn
in
humidity
%
barometer
mb
20260510213015 58 90 1.7 7.0 0.00 0.00 0.00 34 1019.5
20260510212015 58 315 3.5 7.8 0.00 0.00 0.00 34 1019.5
20260510211015 58 315 2.6 7.0 0.00 0.00 0.00 35 1019.3
20260510210015 58 315 3.5 8.7 0.00 0.00 0.00 37 1019.3
20260510205015 58 293 2.6 7.8 0.00 0.00 0.00 37 1019.3
20260510204015 58 315 3.5 8.7 0.00 0.00 0.00 36 1019.3
20260510203037 57 293 3.5 6.1 0.00 0.00 0.00 36 1019.4
20260510202017 57 338 2.6 6.1 0.00 0.00 0.00 39 1019.3
20260510201017 57 338 3.5 8.7 0.00 0.00 0.00 39 1019.3
20260510200017 57 23 3.5 8.7 0.00 0.00 0.00 35 1019.3
20260510195017 57 338 3.5 9.6 0.00 0.00 0.00 40 1019.4
20260510194017 57 315 1.7 7.8 0.00 0.00 0.00 43 1019.3
20260510193017 58 338 2.6 6.1 0.00 0.00 0.00 41 1019.2
20260510192017 58 338 2.6 11.3 0.00 0.00 0.00 42 1019.2
20260510191017 57 338 4.3 7.8 0.00 0.00 0.00 41 1019.2
20260510190018 57 0 2.6 7.8 0.00 0.00 0.00 40 1019.2
20260510185017 57 315 3.5 7.8 0.00 0.00 0.00 41 1019.2
20260510184017 57 338 2.6 7.8 0.00 0.00 0.00 42 1019.2
20260510183017 57 338 3.5 7.8 0.00 0.00 0.00 43 1019.2
20260510182037 57 338 3.5 7.0 0.00 0.00 0.00 41 1019.2
20260510181017 57 338 2.6 5.2 0.00 0.00 0.00 41 1019.2
20260510180017 57 315 2.6 8.7 0.00 0.00 0.00 46 1019.1
20260510175017 56 315 3.5 8.7 0.00 0.00 0.00 44 1019.2
20260510174017 57 0 1.7 7.0 0.00 0.00 0.00 41 1019.1
20260510173017 56 338 3.5 7.0 0.00 0.00 0.00 42 1019.0
20260510172037 56 315 3.5 8.7 0.00 0.00 0.00 42 1019.2
20260510171017 56 315 2.6 8.7 0.00 0.00 0.00 42 1019.1
20260510170017 57 338 1.7 6.1 0.00 0.00 0.00 46 1019.3
20260510165017 56 270 3.5 7.0 0.00 0.00 0.00 47 1019.3
20260510164017 55 315 2.6 7.8 0.00 0.00 0.00 43 1019.4
20260510163017 55 0 2.6 7.8 0.00 0.00 0.00 45 1019.4
20260510162017 54 338 3.5 10.4 0.00 0.00 0.00 45 1019.4
20260510161017 54 315 3.5 8.7 0.00 0.00 0.00 48 1019.2
20260510160017 54 315 3.5 9.6 0.00 0.00 0.00 45 1019.2
20260510155017 53 315 3.5 7.8 0.00 0.00 0.00 48 1019.2
20260510154017 53 315 2.6 7.8 0.00 0.00 0.00 49 1019.0
20260510153037 52 315 2.6 9.6 0.00 0.00 0.00 51 1019.0
20260510152017 51 315 2.6 7.0 0.00 0.00 0.00 55 1019.0
20260510151018 50 315 2.6 7.0 0.00 0.00 0.00 59 1019.1
20260510150037 49 293 3.5 7.0 0.00 0.00 0.00 61 1018.9
20260510145037 48 315 2.6 5.2 0.00 0.00 0.00 62 1019.0
20260510144017 48 315 1.7 6.1 0.00 0.00 0.00 63 1019.0
20260510143017 48 293 1.7 5.2 0.00 0.00 0.00 65 1019.0
20260510142017 47 338 0.9 2.6 0.00 0.00 0.00 66 1018.9
20260510141017 47 293 0.9 2.6 0.00 0.00 0.00 67 1018.8
20260510140017 47 315 2.6 7.0 0.00 0.00 0.00 66 1018.8
20260510135017 46 293 1.7 3.5 0.00 0.00 0.00 67 1018.7
20260510134037 46 338 1.7 7.8 0.00 0.00 0.00 68 1018.6
20260510133036 46 338 1.7 7.8 0.00 0.00 0.00 68 1018.5
20260510132017 45 315 0.9 2.6 0.00 0.00 0.00 71 1018.4
20260510131017 45 338 0.9 2.6 0.00 0.00 0.00 73 1018.4
20260510130016 44 0.0 0.9 0.00 0.00 0.00 76 1018.3
20260510125016 43 0.0 1.7 0.00 0.00 0.00 76 1018.3
20260510124037 42 0.0 1.7 0.00 0.00 0.00 76 1018.1
20260510123016 41 0.0 0.9 0.00 0.00 0.00 83 1017.9
20260510122016 40 0.0 1.7 0.00 0.00 0.00 81 1018.0
20260510121016 40 0.0 0.9 0.00 0.00 0.00 83 1017.9
20260510120017 40 0.0 0.9 0.00 0.00 0.00 82 1017.8
20260510115017 39 0.0 0.0 0.00 0.00 0.00 81 1017.6
20260510114017 39 0.0 0.0 0.00 0.00 0.00 81 1017.5
20260510113017 39 0.0 0.0 0.00 0.00 0.00 79 1017.4
20260510112016 39 0.0 0.0 0.00 0.00 0.00 78 1017.3
20260510111016 39 0.0 0.0 0.00 0.00 0.00 77 1017.1
20260510110016 39 0.0 0.0 0.00 0.00 0.00 77 1017.0
20260510105017 39 0.0 0.0 0.00 0.00 0.00 76 1016.8
20260510104016 39 0.0 0.0 0.00 0.00 0.00 76 1016.7
20260510103016 39 0.0 0.0 0.00 0.02 0.00 76 1016.5
20260510102016 39 0.0 0.0 0.00 0.06 0.00 75 1016.4
20260510101016 39 0.0 0.0 0.00 0.07 0.00 75 1016.2
20260510100016 39 0.0 0.0 0.00 0.07 0.00 75 1016.1
20260510095016 39 0.0 0.0 0.00 0.07 0.00 76 1016.1
20260510094016 38 0.0 1.7 0.00 0.08 0.00 78 1015.9
20260510093016 37 0.0 1.7 0.00 0.09 0.00 80 1015.8
20260510092016 37 0.0 4.3 0.00 0.10 0.00 84 1015.6
20260510091016 36 338 0.9 2.6 0.00 0.10 0.00 86 1015.5
20260510090016 36 0.0 0.0 0.00 0.10 0.00 86 1015.3
20260510085016 35 0.0 0.0 0.00 0.10 0.00 85 1015.0
20260510084016 35 0.0 0.0 0.00 0.10 0.00 85 1014.9
20260510083016 35 0.0 0.0 0.00 0.10 0.00 84 1014.8
20260510082016 35 0.0 0.0 0.00 0.10 0.00 83 1014.5
20260510081036 35 0.0 0.0 0.00 0.10 0.00 82 1014.5
20260510080016 36 0.0 0.0 0.00 0.10 0.00 80 1014.4
20260510075016 36 0.0 0.0 0.00 0.10 0.00 77 1014.4
20260510074016 36 0.0 0.0 0.00 0.10 0.00 75 1014.3
20260510073016 36 0.0 0.0 0.00 0.10 0.00 75 1014.4
20260510072016 37 0.0 0.0 0.00 0.10 0.00 75 1014.4
20260510071016 37 0.0 0.0 0.00 0.10 0.00 74 1014.4
20260510070117 37 0.0 0.0 0.00 0.10 0.00 72 1014.3
20260510065016 38 0.0 0.0 0.00 0.10 0.00 70 1014.2
20260510064016 38 0.0 0.0 0.00 0.10 0.00 69 1014.2
20260510063036 39 0.0 0.0 0.00 0.10 0.00 68 1014.2
20260510062016 39 0.0 0.0 0.00 0.10 0.00 68 1014.3
20260510061016 40 0.0 0.0 0.00 0.10 0.00 69 1014.2
20260510060036 40 0.0 0.0 0.00 0.10 0.00 68 1014.2
20260510055016 41 0.0 0.0 0.00 0.10 0.00 67 1014.2
20260510054036 41 0.0 0.0 0.00 0.10 0.00 67 1014.1
20260510053016 42 0.0 0.0 0.00 0.10 0.00 65 1014.1
20260510052016 42 0.0 0.0 0.00 0.10 0.00 63 1014.0
20260510051036 43 0.0 0.0 0.00 0.10 0.00 61 1013.9
20260510050016 44 0.0 0.0 0.00 0.10 0.10 58 1013.9
20260510045016 45 0.0 0.0 0.00 0.10 0.10 56 1013.8
20260510044016 46 0.0 0.0 0.00 0.10 0.10 54 1013.7
20260510043016 46 0.0 0.0 0.00 0.10 0.10 52 1013.7
20260510042015 47 0.0 0.0 0.00 0.10 0.10 50 1013.7
20260510041015 48 0.0 0.0 0.00 0.10 0.10 48 1013.8
20260510040016 48 0.0 1.7 0.00 0.10 0.10 48 1013.7
20260510035036 49 0.0 0.9 0.00 0.10 0.10 48 1013.7
20260510034016 49 315 0.9 4.3 0.00 0.10 0.10 47 1013.6
20260510033016 49 315 1.7 4.3 0.00 0.10 0.10 47 1013.5
20260510032036 50 315 0.9 1.7 0.00 0.10 0.10 46 1013.3
20260510031015 50 293 0.9 2.6 0.00 0.10 0.10 46 1013.1
20260510030036 50 315 0.9 2.6 0.00 0.10 0.10 45 1012.9
20260510025016 50 315 1.7 3.5 0.00 0.10 0.10 45 1012.8
20260510024015 51 338 1.7 7.0 0.00 0.10 0.10 43 1012.5
20260510023016 51 293 1.7 5.2 0.00 0.10 0.10 43 1012.3
20260510022056 51 293 0.9 2.6 0.00 0.10 0.10 43 1012.0
20260510021015 51 293 1.7 7.0 0.00 0.10 0.10 42 1011.7
20260510020036 52 315 1.7 7.0 0.00 0.10 0.10 41 1011.5
20260510015015 52 293 0.9 2.6 0.00 0.10 0.10 42 1011.3
20260510014015 52 315 0.9 5.2 0.00 0.10 0.10 41 1011.1
20260510013017 53 315 1.7 3.5 0.00 0.10 0.10 39 1011.0
20260510012015 53 315 0.9 2.6 0.00 0.10 0.10 39 1010.8
20260510011016 54 338 1.7 7.8 0.00 0.10 0.10 38 1010.7
20260510010015 54 315 0.9 4.3 0.00 0.10 0.10 38 1010.5
20260510005015 55 293 2.6 6.1 0.00 0.10 0.10 38 1010.3
20260510004016 55 315 0.9 4.3 0.00 0.10 0.10 38 1010.2
20260510003016 56 0.0 2.6 0.00 0.10 0.10 38 1010.1
20260510002015 56 315 1.7 3.5 0.00 0.10 0.10 36 1010.1
20260510001015 57 338 1.7 7.8 0.00 0.10 0.10 36 1009.9
20260510000016 58 338 2.6 7.0 0.00 0.10 0.10 34 1009.8
20260509235015 59 315 2.6 7.0 0.00 0.10 0.10 33 1009.8
20260509234018 59 338 2.6 7.8 0.00 0.10 0.10 34 1009.7
20260509233015 59 315 2.6 7.8 0.00 0.10 0.10 34 1009.6
20260509232035 59 315 1.7 7.8 0.00 0.10 0.10 34 1009.5
20260509231015 59 315 1.7 7.8 0.00 0.10 0.10 35 1009.4
20260509230015 59 338 1.7 5.2 0.00 0.10 0.10 34 1009.4
20260509225015 60 293 3.5 7.8 0.00 0.10 0.10 33 1009.2
20260509224016 60 315 2.6 7.0 0.00 0.10 0.10 34 1009.1
20260509223015 60 315 2.6 7.0 0.00 0.10 0.10 34 1009.1
20260509222015 60 338 1.7 4.3 0.00 0.10 0.10 34 1009.1
20260509221015 59 315 2.6 7.0 0.00 0.10 0.10 34 1009.1
20260509220015 59 315 3.5 11.3 0.00 0.10 0.10 35 1009.0
20260509215015 59 338 3.5 11.3 0.00 0.10 0.10 34 1009.1
20260509214015 59 293 4.3 12.2 0.00 0.10 0.10 33 1009.0